Location: Kamatamv?rip?lem
(16.3013°N, 80.6781°E)
Time: 14:03:15
(UTC+00:00)

Daily predictions for brighter satellites

Satellite Brightness Start Highest point End
(mag) Time Altitude Azimuth Time Altitude Azimuth Time Altitude Azimuth
SL-8 R/B 4.2 13:17:45 10° NNW 13:22:14 43° NE 13:26:42 10° ESE
COBE Rocket 4.0 13:17:21 10° N 13:22:24 89° E 13:27:18 10° S
SWIFT 2.0 13:20:29 10° W 13:23:34 57° N 13:26:38 10° ENE
CZ-2D R/B 4.4 13:25:06 10° SSW 13:27:48 34° W 13:30:29 10° NNW
Cosmos 405 Rocket 4.0 13:25:35 10° NNW 13:28:17 32° W 13:30:59 10° SSW
Cosmos 1110 Rocket 4.0 13:24:11 10° S 13:29:22 66° ESE 13:34:37 10° NNE
ARIANE 6 FM1 Upper Stage 3.5 13:27:51 10° N 13:31:24 32° ENE 13:34:54 11° SE
Cosmos 1607 3.9 13:25:55 10° SSW 13:31:55 66° ESE 13:37:59 10° NNE
SAR-Lupe-4 3.5 13:39:18 10° SSE 13:42:45 58° ENE 13:46:11 10° N
ATLAS 5 CENTAUR R/B 1.3 13:37:37 10° W 13:42:59 48° N 13:45:18 10° ENE
Cosmos 1818 3.7 13:38:34 10° NNW 13:44:00 79° WSW 13:49:23 10° SSE
Cosmos 2100 Rocket 4.3 13:45:13 10° SSE 13:51:01 43° E 13:56:51 10° NNE
Meteor 2-1 Rocket 4.3 13:45:55 10° S 13:51:33 55° E 13:57:02 10° NNE
GPS 2-15 Rocket1 4.3 13:47:42 10° SW 13:51:40 25° SSE 13:53:46 19° ESE
SL-24 R/B 4.2 13:48:05 10° NNE 13:52:15 51° E 13:56:35 10° S
SPOT 5 4.0 13:50:45 17° ESE 13:52:15 20° ENE 13:55:25 10° NNE
Resurs 01 Rocket 1.7 13:49:01 10° S 13:53:22 81° W 13:57:43 10° NNW
Cosmos 1656 3.6 13:49:00 10° N 13:54:33 69° ENE 14:00:02 11° SSE
TOS 3.2 13:54:50 10° W 13:57:18 76° S 14:01:03 18° E
PSLV R/B 3.3 13:53:36 10° SSE 13:57:43 78° E 14:01:51 10° N
Cosmos 2151 Rocket 3.6 13:57:01 10° S 14:01:22 81° W 14:05:43 10° N
Okean 2 Rocket 3.0 13:57:53 10° S 14:02:18 69° E 14:06:44 10° N
FALCON 9 R/B 3.9 13:56:53 10° WSW 14:04:16 82° SSE 14:37:17 10° ENE
NOAA 6 4.4 14:02:41 10° S 14:07:42 64° WSW 14:12:43 10° NNW
Helios 1A Rocket 3.5 14:06:22 10° NE 14:08:05 24° ENE 14:08:05 24° ENE
Cosmos 1536 Rocket 4.4 14:05:55 10° NNE 14:09:44 29° E 14:10:13 28° E
ASTEX 1 3.9 14:07:56 25° SE 14:10:06 38° E 14:14:39 10° NNE
SL-24 R/B 4.5 14:07:33 10° NNE 14:12:15 65° ESE 14:17:48 10° S
ATLAS 2A CENTAUR R/B 2.9 14:10:29 10° NW 14:12:53 19° N 14:13:36 17° NNE
NOSS 3-3 (A) 3.5 14:08:15 10° SSW 14:12:59 72° WNW 14:18:02 10° NNE
Meteor 2-3 Rocket 4.4 14:11:52 10° NNE 14:16:52 32° E 14:17:57 30° ESE
Cosmos 2082 Rocket 2.1 14:11:45 10° SSW 14:17:27 83° ESE 14:23:10 10° NNE
Cosmos 1725 Rocket 4.2 14:16:15 17° SSE 14:20:53 47° E 14:26:50 10° NNE
Cosmos 1190 Rocket 4.1 14:16:31 10° NNW 14:21:42 76° WSW 14:25:27 19° S
Cosmos 1455 Rocket 3.3 14:21:34 42° ESE 14:22:06 44° E 14:26:17 10° NNE
GPS 2-12 Rocket1 3.1 14:18:33 10° W 14:22:47 55° SSW 14:23:48 44° SSE
Milstar 3 4.0 14:18:27 10° NW 14:24:27 34° N 14:30:39 14° ENE
Delta 168 3.6 14:23:34 10° W 14:26:31 37° NNW 14:27:51 26° NE
SL-4 R/B 4.2 14:24:54 10° NNE 14:26:12 12° NE 14:26:12 12° NE
Cosmos 332 Rocket 3.6 14:25:36 10° N 14:30:19 68° ENE 14:31:24 50° SE
Okean 1 Rocket 3.9 14:28:57 10° SSW 14:33:08 48° W 14:37:22 10° N
Meteor 1-27 4.1 14:29:58 20° S 14:33:54 66° E 14:39:29 10° NNE
Cosmos 2016 Rocket 4.0 14:32:56 27° SSE 14:36:24 60° E 14:42:31 10° NNE
Cosmos 2173 Rocket 4.2 14:30:50 10° SSW 14:36:52 68° W 14:42:58 10° N
SJ 16-02 3.7 14:34:51 10° NW 14:37:54 20° W 14:40:58 10° SW
Cosmos 968 Rocket 3.8 14:34:00 10° N 14:38:56 45° ENE 14:38:56 45° ENE
SJ-6B 4.4 14:37:52 17° SSW 14:39:52 28° W 14:42:55 10° NW
SEDSat Delta rocket 4.0 14:34:21 10° SW 14:40:43 55° SSE 14:41:54 48° ESE
Cosmos 1954 Rocket 4.5 14:35:47 10° NNW 14:40:47 57° WSW 14:43:29 26° S
Cosmos 1697 Rocket 2.6 14:42:34 10° N 14:48:04 61° ENE 14:48:22 60° E
USA 215 3.2 14:49:08 50° ESE 14:50:53 72° NE 14:57:22 10° NNW
H-10 deb 4.1 14:48:35 10° WSW 14:50:45 16° SW 14:50:45 16° SW
COSMOS 2406 3.0 14:53:33 56° S 14:54:46 77° ESE 15:00:29 10° NNE
Delta 202 4.4 14:53:14 10° W 14:58:03 38° SSW 14:58:03 38° SSW
SWIFT 4.4 14:58:34 10° WNW 14:59:39 18° WNW 14:59:39 18° WNW
Cosmos 1816 Rocket 4.4 14:55:33 10° N 15:01:27 65° ENE 15:01:27 65° ENE
Cosmos 2061 Rocket 4.1 15:06:45 57° NE 15:06:45 57° NE 15:11:57 10° NNE
USA 229 DEB 4.0 14:59:23 10° NNW 15:07:35 79° ENE 15:09:22 60° SE
USA 229 4.1 14:59:26 10° NNW 15:07:39 77° ENE 15:09:22 60° SE
Terra 3.1 15:10:10 32° N 15:10:10 32° N 15:12:43 10° N
CSL-04 Rocket 4.3 15:07:39 40° SSW 15:09:08 51° W 15:14:27 10° NNW
SL-08 R/B 4.0 15:10:53 10° N 15:15:13 50° WNW 15:15:13 50° WNW
Cosmos 1980 Rocket 3.4 15:13:07 10° N 15:16:19 30° NNE 15:16:19 30° NNE
CZ-4 R/B 3.9 15:24:30 18° NW 15:24:30 18° NW 15:25:38 10° NW
CZ-4B R/B 3.9 15:27:55 49° N 15:27:55 49° N 15:31:58 10° NNW
Aureole 3 Rocket 4.4 15:37:44 69° NW 15:37:44 69° NW 15:45:07 10° N
ATLAS 3B R/B 3.0 15:38:42 10° NNW 15:44:53 63° NW 15:44:53 63° NW
Resurs 1-4 Rocket 4.5 20:54:36 10° NNE 20:55:53 18° NNE 20:55:53 18° NNE
Atlas Centaur 2 4.2 21:01:04 29° N 21:01:31 29° N 21:08:15 10° NE
CZ-2D R/B 3.8 21:32:05 10° N 21:34:27 26° N 21:34:27 26° N
Ariane H10+ 4.4 21:42:27 50° SW 21:45:52 58° S 22:00:42 10° ESE
H-2A R/B 3.5 21:40:45 10° N 21:43:36 31° NNW 21:43:36 31° NNW
USA 267 4.1 21:41:23 10° ENE 21:47:26 40° SE 21:48:52 36° SSE
CZ-3 R/B 3.9 21:08:28 10° WNW 21:53:11 81° NNE 22:03:22 10° ESE
Nadezhda 1 Rocket 3.9 21:55:46 70° NW 21:55:46 70° NW 22:01:15 10° N
ARGOS 3.2 21:51:54 10° NNE 21:57:13 73° ESE 21:57:14 73° ESE
Cosmos 1933 Rocket 4.5 21:55:28 10° N 21:58:53 45° NE 21:58:53 45° NE
USA 281 3.1 22:02:00 10° SSE 22:08:34 86° ENE 22:15:08 10° NNW
AQUA 3.7 22:07:29 10° N 22:11:50 77° N 22:11:50 77° N
Meteor 1-12 Rocket 4.0 22:06:59 10° N 22:12:35 72° W 22:12:49 71° WSW
GOES 2 Rocket 3.7 22:14:27 57° S 22:14:49 59° SSE 22:19:34 10° ENE
Cosmos 1680 Rocket 3.9 22:15:45 38° SSE 22:17:33 61° ESE 22:22:39 10° NNE
Cosmos 2344 4.4 22:16:59 34° W 22:18:22 36° WNW 22:25:14 10° N
GPS 2-17 Rocket1 3.4 22:18:13 55° NNW 22:18:39 58° N 22:23:10 10° E
SL-08 RB Rocket 3.9 22:14:22 10° NNE 22:18:53 69° ESE 22:19:50 52° SSE
Cosmos 1943 3.2 22:13:47 10° NNW 22:18:47 57° W 22:18:47 57° W
Centaur D AC-29 2.1 22:18:26 38° W 22:21:50 75° NNW 22:25:40 10° ENE
H-2A R/B 1.8 22:19:30 10° NNE 22:23:29 84° E 22:23:31 84° ESE
GPS 2-15 Rocket1 3.8 22:31:22 36° S 22:31:22 36° S 22:34:51 10° SE
NOSS 3-2 (C) 3.1 22:30:37 44° WNW 22:30:42 44° WNW 22:35:25 10° N
Cosmos 1869 Rocket 3.3 22:26:26 10° N 22:30:44 86° W 22:31:55 47° S
ADEOS II 3.8 22:27:14 10° NNW 22:29:18 17° NW 22:29:18 17° NW
Cosmos 2228 Rocket 3.8 22:28:10 19° SSE 22:31:11 52° E 22:35:31 10° NNE
Cosmos 1707 Rocket 3.3 22:34:33 49° SSW 22:35:39 82° W 22:39:55 10° N
NOSS 2-3 (D) 3.9 22:37:15 40° WNW 22:37:15 40° WNW 22:40:40 10° N
Cosmos 1862 Rocket 3.5 22:39:48 48° SW 22:40:46 62° W 22:45:07 10° N
NOSS 2-3 (E) 4.2 22:41:11 33° WNW 22:41:11 33° WNW 22:44:24 10° N
EPKM 4.0 22:39:44 39° SW 22:41:00 46° S 22:55:12 10° ESE
SL-24 R/B 3.9 22:37:22 10° N 22:41:20 68° WNW 22:42:44 40° SSW
Cosmos 494 Rocket 3.9 22:39:16 27° SSW 22:42:03 89° ESE 22:47:12 10° NNE
Cosmos 1603 3.7 22:39:02 10° NNW 22:44:47 88° ENE 22:50:28 10° SSE
Cosmos 923 Rocket 4.5 22:44:58 35° WSW 22:46:10 40° WNW 22:51:08 10° N
Cosmos 1900 4.3 22:41:30 10° NNW 22:46:21 83° ENE 22:51:14 10° SSE
Cosmos 1943 Rocket 2.3 22:43:29 17° S 22:47:55 75° ESE 22:53:33 10° NNE
Cosmos 2112 Rocket 3.9 22:47:38 25° SSW 22:50:43 71° WNW 22:55:55 10° N
ATLAS 2AS CENTAUR R/B 2.6 22:44:00 10° NNW 22:50:47 79° WSW 22:57:45 10° SSE
Atlas Centaur 2 4.5 22:45:04 10° NW 22:51:51 31° N 22:58:53 10° ENE
ARIANE 5 R/B 3.1 22:59:08 16° SSW 22:59:14 16° S 23:01:28 10° SE
IUS-1 SRM-2 4.2 23:00:17 16° WNW 23:03:02 41° N 23:14:26 10° ENE
SJ-11-01 4.2 23:01:20 10° N 23:05:56 84° WNW 23:10:33 10° SSW
OAO 3 Rocket 3.8 23:03:20 19° SSW 23:06:30 49° SE 23:11:09 10° ENE
Meteor 2-5 Rocket 3.6 23:01:15 10° SSW 23:06:44 68° W 23:12:13 10° N
Okean 1-7 4.0 23:07:10 23° W 23:07:51 24° W 23:11:10 10° NNW
Intelsat 5-1 Rocket 4.0 23:05:06 11° WNW 23:08:58 41° N 23:18:20 10° ENE
Timation 2 Rocket 4.4 23:03:11 10° S 23:09:00 59° ESE 23:14:54 10° NNE
Cosmos 2278 Rocket 2.2 23:06:26 10° SSW 23:12:05 83° WNW 23:17:45 10° NNE
CZ-2C R/B 2.7 23:08:47 10° N 23:12:59 39° WNW 23:16:31 14° SW
Cosmos 2366 rocket 4.1 23:06:39 10° N 23:12:59 89° E 23:19:21 10° S
Cosmos 1733 Rocket 3.0 23:15:07 10° NNW 23:19:20 60° W 23:23:32 10° S
Cosmos 1400 Rocket 4.0 23:21:33 10° NW 23:24:17 19° W 23:26:41 12° SW
Cosmos 2181 Rocket 4.4 23:22:37 10° SSW 23:28:18 40° W 23:34:00 10° NNW
USA 267 4.1 23:24:23 10° NNE 23:30:11 35° NW 23:36:00 10° WSW
SEDSat Delta rocket 3.0 23:29:08 10° WNW 23:34:04 83° SSW 23:38:24 10° ESE
SL-16 R/B 2.8 23:28:10 10° S 23:34:04 45° WSW 23:40:00 10° NNW
USA 59 Rocket 0.6 23:28:56 10° SSW 23:34:44 69° ESE 23:38:51 10° NNE
USA 307 4.0 23:32:30 10° WNW 23:35:19 19° WSW 23:38:10 10° SSW
EPKM 4.0 23:33:12 10° SSW 23:35:47 29° SE 23:42:06 10° E
Exosat Rocket 4.4 23:33:08 10° SW 23:38:07 32° WNW 23:42:33 10° N
Cosmos 1821 Rocket 4.0 23:34:03 10° N 23:40:14 83° W 23:46:21 10° S
Meteosat 1 Rocket2 3.2 23:38:54 10° WNW 23:44:40 81° SSW 23:48:45 10° ESE
Stardust Del rocket 2.9 23:42:02 10° WNW 23:45:57 68° NNE 23:48:31 10° E
NOSS 2-1 (C) 4.4 23:41:02 10° SSW 23:47:02 64° ESE 23:51:16 10° NE
